{"data":{"norad_id":38356,"intl_designator":"2012-030A","name":"INTELSAT 19 (IS-19)","alt_names":[],"object_type":"PAYLOAD","status":"ACTIVE","operator":null,"country":"ITSO","launch_date":"2012-06-01","launch_site_code":"SEAL","launch_vehicle":null,"mission":null,"orbit_class":"UNKNOWN","rcs_meters":15.8188,"size_class":null,"mass_kg":null,"dimensions":null,"purposes":["comms"],"wikipedia_slug":null,"has_3d_model":false,"image_url":null,"decayed_at":null,"tle_current":{"epoch":"2026-09-19T21:10:57.090144Z","epoch_age_seconds":67771,"freshness":"FRESH","line1":"1 38356U 12030A   26262.88260521 -.00000060  00000+0  00000+0 0  9996","line2":"2 38356   0.0156  97.4676 0003130  85.6702 299.4027  1.00272257 51402","mean_motion":1.00272257,"eccentricity":0.000313,"inclination_deg":0.0156,"raan_deg":97.4676,"arg_perigee_deg":85.6702,"mean_anomaly_deg":299.4027,"bstar":0,"rev_number":5140,"period_min":1436.0901440565,"perigee_km":35773.265123287,"apogee_km":35799.660162664,"semimajor_km":42164.599642976,"source":"CELESTRAK","updated_at":"2026-09-20T09:00:35.520183Z"}}}